Location: Unspecified
(41.1637°N, 24.2901°E)
Time: 08:48:45
(UTC+01:00)

ISS - Pass Details

Date: 12 December 2018
Orbit: 401 x 408 km, 51.6° (Epoch: 12 December)

Event Time Altitude Azimuth Distance (km) Brightness Sun altitude
Rises 17:23:00 0° 301° (WNW) 2,317 0.7 -16.1°
Reaches altitude 10° 17:25:07 10° 296° (WNW) 1,454 -0.3 -16.5°
Maximum altitude 17:28:15 46° 221° (SW) 544 -2.9 -17.1°
Enters shadow 17:30:47 14° 150° (SSE) 1,214 -1.6 -17.5°
